Location: Newark
(12.4436°N, 0.6167°W)
Time: 01:54:21
(UTC+00:00)

Transit 2A - Pass Details

Date: 16 December 2019
Orbit: 601 x 958 km, 66.7° (Epoch: 23 January)

Event Time Altitude Azimuth Distance (km) Brightness Sun altitude
Rises 04:56:31 0° 216° (SW) 3,306 9.1 -18.8°
Reaches altitude 10° 04:59:12 10° 224° (SW) 2,314 8.3 -18.2°
Maximum altitude 05:04:01 37° 291° (WNW) 1,116 6.3 -17.1°
Drops below altitude 10° 05:08:26 10° 358° (N) 2,106 8.1 -16.1°
Sets 05:10:48 0° 7° (N) 2,972 8.9 -15.5°
